Weather History for Indianapolis, IN

Change the Weather History Date:

Saturday, December 15, 2012

  Actual Average (KEYE) Record (KEYE)
Temperature  
Mean Temperature 46 °F 32 °F  
Max Temperature 54 °F 38 °F 60 °F (2011)
Min Temperature 39 °F 25 °F 0 °F (2010)
Degree Days  
Heating Degree Days 18 34  
Month to date heating degree days 465  
Since 1 July heating degree days 1489  
Cooling Degree Days 0 0  
Month to date cooling degree days 0  
Year to date cooling degree days 1058  
Moisture  
Dew Point 37 °F    
Average Humidity 74    
Maximum Humidity 87    
Minimum Humidity 57    
Precipitation  
Precipitation 0.14 in 0.07 in 0.70 in (1993)
Month to date precipitation 1.24  
Year to date precipitation 38.95  
Sea Level Pressure  
Sea Level Pressure 29.89 in    
Wind  
Wind Speed 8 mph (SSE)    
Max Wind Speed 22 mph    
Max Gust Speed 29 mph    
Visibility 10 miles    
Events Rain    
T = Trace of Precipitation, MM = Missing Value Source: NWS Daily Summary

Daily Weather History Graph

Daily Weather History Graph

Search for Another Location

Airport:

Trip Planner

Search our weather history database for the weather conditions in past years. The results will help you decide how hot, cold, wet, or windy it might be!

Date:

Astronomy

Dec. 15, 2012 Rise Set
Actual Time 8:00 AM EST 5:20 PM EST
Civil Twilight 7:29 AM EST 5:51 PM EST
Nautical Twilight 6:55 AM EST 6:25 PM EST
Astronomical Twilight 6:22 AM EST 6:58 PM EST
Moon 9:52 AM EST (12/15) 8:24 PM EST (12/15)
Length of Visible Light 10h 21m
Length of Day
9h 20m
Waxing Crescent, 8% of the Moon is Illuminated
Dec 15
Waxing Crescent
Dec 20
First Quarter
Dec 28
Full
Jan 4
Last Quarter
Jan 11
New

Hourly Weather History & Observations

Time (EST) Temp. Windchill Dew Point Humidity Pressure Visibility Wind Dir Wind Speed Gust Speed Precip Events Conditions
12:15 AM 40.8 °F 37.8 °F 28.4 °F 61% 30.12 in 10.0 mi SSE 4.6 mph - N/A   Clear
12:35 AM 40.1 °F 36.1 °F 29.1 °F 65% 30.11 in 10.0 mi SSE 5.8 mph - N/A   Clear
12:55 AM 40.8 °F 37.8 °F 28.4 °F 61% 30.11 in 10.0 mi SE 4.6 mph - N/A   Clear
1:15 AM 41.4 °F 38.4 °F 28.0 °F 59% 30.10 in 10.0 mi SE 4.6 mph - N/A   Clear
1:35 AM 41.0 °F 38.0 °F 28.0 °F 60% 30.10 in 10.0 mi SSE 4.6 mph - N/A   Scattered Clouds
1:55 AM 41.4 °F 39.4 °F 28.0 °F 59% 30.10 in 10.0 mi SE 3.5 mph - N/A   Scattered Clouds
2:15 AM 41.2 °F 39.2 °F 28.2 °F 60% 30.10 in 10.0 mi SE 3.5 mph - N/A   Mostly Cloudy
2:35 AM 41.0 °F - 27.9 °F 60% 30.09 in 10.0 mi Calm Calm - N/A   Overcast
2:55 AM 41.2 °F - 27.1 °F 57% 30.08 in 10.0 mi Calm Calm - N/A   Scattered Clouds
3:15 AM 40.3 °F 37.1 °F 27.5 °F 60% 30.07 in 10.0 mi SE 4.6 mph - N/A   Clear
3:35 AM 39.9 °F 36.7 °F 26.2 °F 58% 30.06 in 10.0 mi SE 4.6 mph - N/A   Clear
3:55 AM 39.4 °F 35.2 °F 27.3 °F 62% 30.06 in 10.0 mi SE 5.8 mph - N/A   Clear
4:15 AM 41.0 °F 38.0 °F 27.1 °F 58% 30.05 in 10.0 mi SE 4.6 mph - N/A   Clear
4:35 AM 41.0 °F 37.1 °F 27.1 °F 58% 30.04 in 10.0 mi SE 5.8 mph - N/A   Scattered Clouds
4:55 AM 40.8 °F 36.2 °F 28.4 °F 61% 30.04 in 10.0 mi SE 6.9 mph - N/A   Mostly Cloudy
5:15 AM 41.9 °F 38.2 °F 27.7 °F 57% 30.04 in 10.0 mi SE 5.8 mph - N/A   Mostly Cloudy
5:35 AM 40.6 °F 37.5 °F 28.8 °F 63% 30.05 in 10.0 mi SSE 4.6 mph - N/A   Mostly Cloudy
5:55 AM 41.2 °F 37.3 °F 28.6 °F 61% 30.05 in 10.0 mi SSE 5.8 mph - N/A   Overcast
6:15 AM 41.0 °F 38.0 °F 28.8 °F 62% 30.06 in 10.0 mi SSE 4.6 mph - N/A   Overcast
6:35 AM 41.5 °F 37.8 °F 28.6 °F 60% 30.04 in 10.0 mi SE 5.8 mph - N/A   Overcast
6:55 AM 42.1 °F 37.7 °F 29.1 °F 60% 30.04 in 10.0 mi SSE 6.9 mph - N/A   Overcast
7:15 AM 41.7 °F 37.3 °F 31.1 °F 66% 30.01 in 7.0 mi East 6.9 mph - 0.03 in Rain Heavy Rain
7:35 AM 40.3 °F 36.3 °F 32.0 °F 72% 30.01 in 10.0 mi SE 5.8 mph - 0.04 in   Mostly Cloudy
7:55 AM 39.9 °F 35.8 °F 32.0 °F 73% 29.99 in 10.0 mi ESE 5.8 mph - 0.04 in   Scattered Clouds
8:15 AM 40.6 °F 36.0 °F 32.0 °F 71% 29.99 in 10.0 mi SE 6.9 mph - N/A   Scattered Clouds
8:35 AM 41.5 °F 37.1 °F 32.4 °F 70% 29.99 in 10.0 mi SE 6.9 mph - N/A   Scattered Clouds
8:55 AM 41.9 °F 39.0 °F 32.9 °F 70% 29.96 in 10.0 mi ESE 4.6 mph - N/A   Mostly Cloudy
9:15 AM 41.9 °F 37.5 °F 33.3 °F 71% 30.02 in 10.0 mi South 6.9 mph - N/A   Overcast
9:35 AM 42.3 °F 38.6 °F 33.4 °F 71% 30.01 in 10.0 mi South 5.8 mph - N/A Rain Rain
9:55 AM 41.5 °F 36.4 °F 34.7 °F 77% 29.99 in 10.0 mi SE 8.1 mph - 0.01 in Rain Light Rain
10:15 AM 42.4 °F 37.5 °F 34.7 °F 74% 29.97 in 10.0 mi SE 8.1 mph - 0.01 in Rain Light Rain
10:35 AM 42.3 °F 36.3 °F 35.6 °F 77% 29.96 in 7.0 mi SE 10.4 mph - 0.04 in Rain Light Rain
10:55 AM 42.3 °F 34.1 °F 36.3 °F 79% 29.90 in 7.0 mi SE 17.3 mph 21.9 mph 0.08 in Rain Light Rain
11:15 AM 42.8 °F 33.8 °F 37.6 °F 82% 29.88 in 10.0 mi SSE 21.9 mph 28.8 mph N/A Rain Light Rain
11:35 AM 44.1 °F 36.5 °F 39.0 °F 82% 29.90 in 10.0 mi SSE 17.3 mph - N/A   Mostly Cloudy
11:55 AM 43.7 °F 36.0 °F 38.8 °F 83% 29.90 in 10.0 mi SSE 17.3 mph 23.0 mph 0.01 in Rain Light Rain
12:15 PM 43.9 °F 36.5 °F 39.4 °F 84% 29.88 in 5.0 mi SSE 16.1 mph - N/A   Light Drizzle
12:35 PM 44.8 °F 37.7 °F 40.1 °F 84% 29.86 in 10.0 mi SSE 16.1 mph 19.6 mph N/A   Overcast
12:55 PM 45.5 °F 38.1 °F 40.8 °F 84% 29.83 in 10.0 mi SSE 18.4 mph 24.2 mph N/A   Overcast
1:15 PM 45.9 °F 39.4 °F 40.6 °F 82% 29.82 in 10.0 mi SSE 15.0 mph 25.3 mph N/A   Overcast
1:55 PM 45.9 °F 38.8 °F 40.6 °F 82% 29.79 in 10.0 mi SSE 17.3 mph 23.0 mph N/A   Overcast
2:15 PM 46.0 °F 38.8 °F 40.6 °F 81% 29.79 in 10.0 mi SSE 18.4 mph 21.9 mph N/A   Overcast
2:55 PM 46.8 °F - 40.8 °F 80% 29.75 in 10.0 mi SSE 13.8 mph 23.0 mph N/A   Overcast
3:15 PM 47.3 °F - 41.0 °F 79% 29.74 in 10.0 mi SSE 15.0 mph 24.2 mph N/A   Overcast
3:35 PM 47.3 °F - 41.0 °F 79% 29.74 in 10.0 mi SSE 13.8 mph 20.7 mph N/A   Overcast
3:55 PM 47.5 °F - 41.5 °F 80% 29.73 in 10.0 mi South 17.3 mph 21.9 mph N/A   Overcast
4:15 PM 47.7 °F - 42.3 °F 82% 29.73 in 10.0 mi South 13.8 mph 21.9 mph N/A   Overcast
4:35 PM 47.8 °F - 42.8 °F 83% 29.74 in 10.0 mi South 11.5 mph 15.0 mph N/A   Overcast
4:55 PM 47.8 °F - 42.8 °F 83% 29.74 in 10.0 mi South 10.4 mph - N/A   Overcast
5:15 PM 48.2 °F - 42.8 °F 82% 29.73 in 10.0 mi South 10.4 mph 18.4 mph N/A   Overcast
5:35 PM 48.2 °F - 43.0 °F 82% 29.73 in 10.0 mi South 12.7 mph - N/A   Overcast
5:55 PM 48.2 °F - 43.2 °F 83% 29.72 in 10.0 mi South 10.4 mph - N/A   Overcast
6:15 PM 48.4 °F - 43.3 °F 83% 29.72 in 10.0 mi South 12.7 mph - N/A   Overcast
6:55 PM 48.6 °F - 44.4 °F 86% 29.72 in 10.0 mi South 8.1 mph - N/A   Overcast
7:15 PM 48.7 °F - 44.8 °F 86% 29.72 in 10.0 mi South 11.5 mph - N/A Rain Rain
7:35 PM 49.1 °F - 45.0 °F 86% 29.72 in 10.0 mi South 10.4 mph - N/A   Overcast
7:55 PM 49.8 °F - 45.9 °F 86% 29.73 in 10.0 mi South 10.4 mph 17.3 mph N/A   Overcast
8:15 PM 50.0 °F - 46.0 °F 86% 29.73 in 10.0 mi South 8.1 mph - N/A   Overcast
8:55 PM 50.4 °F - 46.6 °F 87% 29.72 in 10.0 mi South 9.2 mph - N/A   Overcast
9:15 PM 50.5 °F - 46.8 °F 87% 29.72 in 10.0 mi South 6.9 mph - N/A   Overcast
9:35 PM 50.9 °F - 46.9 °F 86% 29.72 in 10.0 mi South 8.1 mph - N/A   Overcast
9:55 PM 51.8 °F - 47.7 °F 86% 29.72 in 10.0 mi SSW 11.5 mph - N/A   Overcast
10:15 PM 53.4 °F - 48.2 °F 82% 29.72 in 10.0 mi SSW 12.7 mph 18.4 mph N/A   Overcast
10:35 PM 53.6 °F - 48.2 °F 82% 29.72 in 10.0 mi SSW 13.8 mph 19.6 mph N/A   Overcast
10:55 PM 53.6 °F - 48.4 °F 82% 29.73 in 10.0 mi SW 11.5 mph - N/A   Drizzle
11:15 PM 53.6 °F - 48.6 °F 83% 29.71 in 10.0 mi SSW 15.0 mph - N/A   Overcast
11:35 PM 54.0 °F - 48.7 °F 82% 29.70 in 10.0 mi SSW 19.6 mph 24.2 mph N/A   Mostly Cloudy
11:55 PM 54.3 °F - 48.7 °F 81% 29.71 in 10.0 mi SSW 18.4 mph 27.6 mph N/A   Mostly Cloudy